UAL201 CYVR-CYYC

Flight info

Callsign UAL201
Flight time 1h 10m
Altitude 37000
Route DCT DAPED DCT PETLI DCT MENBO Q983 NORET IGVEP7
Aircraft A320/M-FAA/L

Departure

Time 2026-05-06 00:22
Airport Vancouver International Airport (CYVR)

Arrival

Time 2026-05-06 01:33
Airport Calgary International Airport (CYYC)
Time Latitude Longitude Altitude Speed Heading
2026-05-05 23:56 49.19291 -123.18369 17 ft 0 kts 166°
2026-05-06 00:15 49.19300 -123.18373 26 ft 2 kts 166°
2026-05-06 00:15 49.19317 -123.18374 18 ft 3 kts 202°
2026-05-06 00:15 49.19332 -123.18361 19 ft 0 kts 237°
2026-05-06 00:17 49.19331 -123.18363 19 ft 5 kts 240°
2026-05-06 00:17 49.19344 -123.18471 19 ft 9 kts 282°
2026-05-06 00:18 49.19347 -123.18492 18 ft 0 kts 281°
2026-05-06 00:19 49.19368 -123.18560 17 ft 15 kts 314°
2026-05-06 00:19 49.19397 -123.18712 17 ft 17 kts 258°
2026-05-06 00:19 49.19377 -123.18898 17 ft 18 kts 275°
2026-05-06 00:19 49.19458 -123.19046 19 ft 20 kts 323°
2026-05-06 00:20 49.19570 -123.19180 17 ft 21 kts 322°
2026-05-06 00:20 49.19692 -123.19330 17 ft 23 kts 321°
2026-05-06 00:20 49.19826 -123.19490 18 ft 25 kts 322°
2026-05-06 00:20 49.19963 -123.19666 18 ft 24 kts 304°
2026-05-06 00:21 49.20007 -123.19920 18 ft 23 kts 280°
2026-05-06 00:21 49.19951 -123.20033 17 ft 13 kts 166°
2026-05-06 00:21 49.19932 -123.20015 16 ft 4 kts 143°
2026-05-06 00:21 49.19685 -123.19713 20 ft 90 kts 140°
2026-05-06 00:22 49.18997 -123.18893 18 ft 157 kts 142°
2026-05-06 00:22 49.18016 -123.17750 329 ft 191 kts 142°
2026-05-06 00:22 49.16890 -123.16414 819 ft 217 kts 141°
2026-05-06 00:22 49.15648 -123.14921 1357 ft 238 kts 142°
2026-05-06 00:23 49.14390 -123.13167 1873 ft 252 kts 124°
2026-05-06 00:23 49.13840 -123.10623 2523 ft 258 kts 94°
2026-05-06 00:23 49.13871 -123.07854 3223 ft 265 kts 84°
2026-05-06 00:23 49.14077 -123.05055 3910 ft 272 kts 82°
2026-05-06 00:24 49.14298 -123.02127 4622 ft 277 kts 83°
2026-05-06 00:24 49.14469 -122.99218 5309 ft 280 kts 85°
2026-05-06 00:24 49.14586 -122.96239 6008 ft 283 kts 86°
2026-05-06 00:24 49.14657 -122.93217 6699 ft 286 kts 87°
2026-05-06 00:25 49.14699 -122.90171 7374 ft 288 kts 88°
2026-05-06 00:25 49.14724 -122.87103 8063 ft 290 kts 88°
2026-05-06 00:25 49.14739 -122.84013 8767 ft 292 kts 88°
2026-05-06 00:25 49.14749 -122.80901 9492 ft 294 kts 88°
2026-05-06 00:26 49.14759 -122.77758 10194 ft 298 kts 88°
2026-05-06 00:26 49.14771 -122.74563 10862 ft 304 kts 88°
2026-05-06 00:26 49.14785 -122.71299 11546 ft 311 kts 88°
2026-05-06 00:26 49.14801 -122.67965 12206 ft 318 kts 87°
2026-05-06 00:27 49.14817 -122.64525 12736 ft 329 kts 87°
2026-05-06 00:27 49.14832 -122.60976 13278 ft 338 kts 87°
2026-05-06 00:27 49.14845 -122.57337 13829 ft 347 kts 87°
2026-05-06 00:27 49.14859 -122.53618 14320 ft 355 kts 87°
2026-05-06 00:28 49.14867 -122.51105 14652 ft 360 kts 87°
2026-05-06 00:28 49.14879 -122.47247 15154 ft 367 kts 87°
2026-05-06 00:28 49.14890 -122.43311 15667 ft 373 kts 87°
2026-05-06 00:28 49.14901 -122.39330 16185 ft 379 kts 87°
2026-05-06 00:29 49.14909 -122.35277 16717 ft 384 kts 86°
2026-05-06 00:29 49.14915 -122.31183 17257 ft 388 kts 86°
2026-05-06 00:29 49.14919 -122.27022 17802 ft 393 kts 86°
2026-05-06 00:29 49.14920 -122.22823 18355 ft 398 kts 86°
2026-05-06 00:30 49.14921 -122.18575 18837 ft 403 kts 86°
2026-05-06 00:30 49.14924 -122.14266 19336 ft 407 kts 86°
2026-05-06 00:30 49.14923 -122.09908 19839 ft 412 kts 86°
2026-05-06 00:30 49.14918 -122.05526 20346 ft 415 kts 86°
2026-05-06 00:31 49.14912 -122.01086 20866 ft 418 kts 86°
2026-05-06 00:31 49.14904 -121.96639 21394 ft 420 kts 86°
2026-05-06 00:31 49.14891 -121.92148 21926 ft 422 kts 86°
2026-05-06 00:31 49.14878 -121.87661 22468 ft 424 kts 86°
2026-05-06 00:32 49.14862 -121.83149 23021 ft 425 kts 85°
2026-05-06 00:32 49.14844 -121.78637 23579 ft 426 kts 85°
2026-05-06 00:32 49.14827 -121.74116 24052 ft 427 kts 85°
2026-05-06 00:32 49.14812 -121.69582 24533 ft 428 kts 85°
2026-05-06 00:33 49.15047 -121.65070 25012 ft 424 kts 77°
2026-05-06 00:33 49.15462 -121.60614 25510 ft 423 kts 77°
2026-05-06 00:33 49.15864 -121.56173 26005 ft 422 kts 77°
2026-05-06 00:33 49.16263 -121.51706 26378 ft 426 kts 77°
2026-05-06 00:34 49.16664 -121.47189 26755 ft 429 kts 77°
2026-05-06 00:34 49.17063 -121.42690 27128 ft 428 kts 77°
2026-05-06 00:34 49.17464 -121.38170 27510 ft 430 kts 77°
2026-05-06 00:34 49.17862 -121.33649 27904 ft 432 kts 77°
2026-05-06 00:35 49.18263 -121.29070 28300 ft 434 kts 77°
2026-05-06 00:35 49.18663 -121.24498 28708 ft 435 kts 77°
2026-05-06 00:35 49.19064 -121.19902 29113 ft 437 kts 77°
2026-05-06 00:35 49.19464 -121.15288 29526 ft 437 kts 77°
2026-05-06 00:36 49.19861 -121.10679 29950 ft 439 kts 78°
2026-05-06 00:36 49.20258 -121.06038 30314 ft 440 kts 77°
2026-05-06 00:36 49.20654 -121.01394 30674 ft 441 kts 77°
2026-05-06 00:36 49.21049 -120.96729 31037 ft 442 kts 77°
2026-05-06 00:37 49.21444 -120.92069 31411 ft 443 kts 77°
2026-05-06 00:37 49.21837 -120.87385 31786 ft 444 kts 77°
2026-05-06 00:37 49.22227 -120.82716 32164 ft 444 kts 77°
2026-05-06 00:37 49.22618 -120.78000 32555 ft 445 kts 77°
2026-05-06 00:38 49.23004 -120.73299 32948 ft 446 kts 77°
2026-05-06 00:38 49.23391 -120.68582 33345 ft 446 kts 77°
2026-05-06 00:38 49.23777 -120.63864 33756 ft 446 kts 77°
2026-05-06 00:38 49.24161 -120.59167 34131 ft 445 kts 77°
2026-05-06 00:39 49.24537 -120.54528 34479 ft 444 kts 77°
2026-05-06 00:39 49.24913 -120.49844 34848 ft 443 kts 77°
2026-05-06 00:39 49.25287 -120.45170 35210 ft 442 kts 76°
2026-05-06 00:39 49.25658 -120.40513 35579 ft 440 kts 76°
2026-05-06 00:40 49.26028 -120.35861 35958 ft 438 kts 76°
2026-05-06 00:40 49.26395 -120.31242 36338 ft 436 kts 76°
2026-05-06 00:40 49.26756 -120.26658 36726 ft 433 kts 76°
2026-05-06 00:40 49.27117 -120.22063 36898 ft 436 kts 76°
2026-05-06 00:41 49.27484 -120.17425 36923 ft 442 kts 76°
2026-05-06 00:41 49.28228 -120.07942 36912 ft 454 kts 76°
2026-05-06 00:42 49.28965 -119.98265 36896 ft 462 kts 76°
2026-05-06 00:42 49.29698 -119.88424 36880 ft 466 kts 76°
2026-05-06 00:43 49.30427 -119.78549 36888 ft 466 kts 76°
2026-05-06 00:43 49.31152 -119.68666 36876 ft 467 kts 76°
2026-05-06 00:44 49.32589 -119.59151 36883 ft 451 kts 60°
2026-05-06 00:44 49.35312 -119.50660 36891 ft 446 kts 56°
2026-05-06 00:45 49.38115 -119.42162 36907 ft 447 kts 56°
2026-05-06 00:45 49.40901 -119.33628 36910 ft 447 kts 56°
2026-05-06 00:46 49.43684 -119.25092 36917 ft 447 kts 56°
2026-05-06 00:46 49.46466 -119.16546 36926 ft 446 kts 56°
2026-05-06 00:47 49.49234 -119.08004 36937 ft 446 kts 56°
2026-05-06 00:47 49.51998 -118.99455 36944 ft 445 kts 56°
2026-05-06 00:48 49.54751 -118.90915 36948 ft 445 kts 56°
2026-05-06 00:48 49.57493 -118.82365 36947 ft 444 kts 56°
2026-05-06 00:49 49.60220 -118.73815 36953 ft 445 kts 56°
2026-05-06 00:49 49.62928 -118.65304 36958 ft 445 kts 56°
2026-05-06 00:50 49.65666 -118.56698 36960 ft 444 kts 56°
2026-05-06 00:50 49.68384 -118.48134 36952 ft 443 kts 56°
2026-05-06 00:51 49.71087 -118.39570 36958 ft 443 kts 56°
2026-05-06 00:51 49.73775 -118.30998 36956 ft 443 kts 56°
2026-05-06 00:52 49.76442 -118.22485 36956 ft 442 kts 56°
2026-05-06 00:52 49.79116 -118.13922 36961 ft 442 kts 56°
2026-05-06 00:53 49.81781 -118.05354 36967 ft 441 kts 56°
2026-05-06 00:53 49.84437 -117.96797 36970 ft 440 kts 56°
2026-05-06 00:54 49.87091 -117.88228 36959 ft 440 kts 56°
2026-05-06 00:54 49.89726 -117.79667 36967 ft 439 kts 56°
2026-05-06 00:55 49.92356 -117.71104 36965 ft 439 kts 56°
2026-05-06 00:55 49.94978 -117.62533 36990 ft 440 kts 56°
2026-05-06 00:56 49.97572 -117.54018 36991 ft 438 kts 56°
2026-05-06 00:56 50.00166 -117.45440 36989 ft 438 kts 56°
2026-05-06 00:57 50.02757 -117.36865 36996 ft 437 kts 56°
2026-05-06 00:57 50.05332 -117.28341 36988 ft 436 kts 56°
2026-05-06 00:58 50.07910 -117.19761 37003 ft 437 kts 57°
2026-05-06 00:58 50.10479 -117.11181 37008 ft 437 kts 56°
2026-05-06 00:59 50.13050 -117.02596 37018 ft 438 kts 56°
2026-05-06 00:59 50.15592 -116.94027 36923 ft 435 kts 56°
2026-05-06 00:59 50.16858 -116.89750 36585 ft 434 kts 56°
2026-05-06 01:00 50.18106 -116.85521 36198 ft 433 kts 56°
2026-05-06 01:00 50.19366 -116.81246 35749 ft 434 kts 56°
2026-05-06 01:00 50.20628 -116.76968 35308 ft 435 kts 56°
2026-05-06 01:00 50.21897 -116.72677 34881 ft 435 kts 56°
2026-05-06 01:01 50.23169 -116.68377 34465 ft 436 kts 56°
2026-05-06 01:01 50.24435 -116.64074 34034 ft 436 kts 56°
2026-05-06 01:01 50.25702 -116.59756 33574 ft 437 kts 56°
2026-05-06 01:01 50.26967 -116.55423 33099 ft 439 kts 56°
2026-05-06 01:02 50.28235 -116.51068 32632 ft 440 kts 56°
2026-05-06 01:02 50.29501 -116.46710 32175 ft 441 kts 57°
2026-05-06 01:02 50.30774 -116.42324 31722 ft 443 kts 57°
2026-05-06 01:02 50.32005 -116.38078 31291 ft 445 kts 57°
2026-05-06 01:03 50.33283 -116.33672 30848 ft 446 kts 57°
2026-05-06 01:03 50.34564 -116.29245 30408 ft 447 kts 57°
2026-05-06 01:03 50.35852 -116.24791 29958 ft 449 kts 57°
2026-05-06 01:03 50.37138 -116.20326 29212 ft 451 kts 57°
2026-05-06 01:04 50.38424 -116.15840 28479 ft 452 kts 58°
2026-05-06 01:04 50.39663 -116.11284 27750 ft 457 kts 59°
2026-05-06 01:04 50.40796 -116.06598 26974 ft 462 kts 62°
2026-05-06 01:04 50.41841 -116.01836 26227 ft 462 kts 64°
2026-05-06 01:05 50.42832 -115.97055 25503 ft 459 kts 64°
2026-05-06 01:05 50.43778 -115.92428 24806 ft 456 kts 64°
2026-05-06 01:05 50.44752 -115.87731 24112 ft 451 kts 64°
2026-05-06 01:05 50.45746 -115.83074 23402 ft 447 kts 64°
2026-05-06 01:06 50.46749 -115.78487 22594 ft 441 kts 64°
2026-05-06 01:06 50.47750 -115.73966 21809 ft 436 kts 64°
2026-05-06 01:06 50.48741 -115.69495 21055 ft 432 kts 64°
2026-05-06 01:06 50.49718 -115.65062 20309 ft 427 kts 64°
2026-05-06 01:07 50.50677 -115.60677 19587 ft 423 kts 64°
2026-05-06 01:07 50.51619 -115.56330 18878 ft 418 kts 65°
2026-05-06 01:07 50.52548 -115.52022 18172 ft 414 kts 65°
2026-05-06 01:07 50.53466 -115.47755 17374 ft 410 kts 65°
2026-05-06 01:08 50.54374 -115.43538 16600 ft 406 kts 65°
2026-05-06 01:08 50.55273 -115.39352 15851 ft 402 kts 65°
2026-05-06 01:08 50.56160 -115.35213 15125 ft 399 kts 65°
2026-05-06 01:08 50.57042 -115.31090 14430 ft 396 kts 65°
2026-05-06 01:09 50.57888 -115.27090 14125 ft 367 kts 65°
2026-05-06 01:09 50.58666 -115.23369 14035 ft 356 kts 65°
2026-05-06 01:09 50.59450 -115.19675 14062 ft 355 kts 64°
2026-05-06 01:09 50.60228 -115.16044 14073 ft 354 kts 65°
2026-05-06 01:10 50.61023 -115.12324 14080 ft 354 kts 64°
2026-05-06 01:10 50.61798 -115.08693 14091 ft 354 kts 64°
2026-05-06 01:10 50.62578 -115.05022 14105 ft 353 kts 64°
2026-05-06 01:10 50.63356 -115.01350 14105 ft 354 kts 64°
2026-05-06 01:11 50.64130 -114.97673 14114 ft 354 kts 65°
2026-05-06 01:11 50.64901 -114.94003 14125 ft 353 kts 65°
2026-05-06 01:11 50.65673 -114.90327 14124 ft 353 kts 64°
2026-05-06 01:11 50.66540 -114.86727 14132 ft 350 kts 59°
2026-05-06 01:12 50.67195 -114.84406 14136 ft 349 kts 59°
2026-05-06 01:12 50.68217 -114.80922 14133 ft 349 kts 58°
2026-05-06 01:12 50.69252 -114.77470 14026 ft 347 kts 58°
2026-05-06 01:12 50.70251 -114.74134 13618 ft 326 kts 58°
2026-05-06 01:13 50.71190 -114.70977 13196 ft 310 kts 58°
2026-05-06 01:13 50.72084 -114.67962 12770 ft 296 kts 59°
2026-05-06 01:13 50.72948 -114.65055 12348 ft 290 kts 59°
2026-05-06 01:13 50.73802 -114.62187 11940 ft 288 kts 60°
2026-05-06 01:14 50.75509 -114.56425 11136 ft 291 kts 61°
2026-05-06 01:14 50.76363 -114.53531 10700 ft 291 kts 62°
2026-05-06 01:14 50.77213 -114.50644 10181 ft 290 kts 63°
2026-05-06 01:15 50.78060 -114.47761 9624 ft 289 kts 63°
2026-05-06 01:15 50.78901 -114.44887 9060 ft 286 kts 63°
2026-05-06 01:15 50.79730 -114.42046 8509 ft 283 kts 63°
2026-05-06 01:15 50.80548 -114.39241 7961 ft 279 kts 64°
2026-05-06 01:16 50.81352 -114.36475 7431 ft 275 kts 64°
2026-05-06 01:16 50.82143 -114.33763 7122 ft 269 kts 64°
2026-05-06 01:16 50.82928 -114.31065 7068 ft 270 kts 65°
2026-05-06 01:16 50.83714 -114.28355 7064 ft 271 kts 64°
2026-05-06 01:17 50.84502 -114.25646 7064 ft 271 kts 64°
2026-05-06 01:17 50.85282 -114.22960 7067 ft 271 kts 65°
2026-05-06 01:17 50.86068 -114.20249 6978 ft 272 kts 64°
2026-05-06 01:17 50.86856 -114.17529 6415 ft 270 kts 65°
2026-05-06 01:18 50.87619 -114.14889 6234 ft 258 kts 65°
2026-05-06 01:18 50.88375 -114.12264 6422 ft 265 kts 65°
2026-05-06 01:18 50.89130 -114.09641 6657 ft 259 kts 65°
2026-05-06 01:18 50.89861 -114.07095 6890 ft 245 kts 65°
2026-05-06 01:19 50.90559 -114.04674 6979 ft 239 kts 64°
2026-05-06 01:19 50.91261 -114.02282 6988 ft 238 kts 60°
2026-05-06 01:19 50.92391 -114.00453 6989 ft 235 kts 24°
2026-05-06 01:19 50.93981 -114.00180 6980 ft 230 kts 347°
2026-05-06 01:20 50.95437 -114.00993 6971 ft 218 kts 341°
2026-05-06 01:20 50.96896 -114.01562 6971 ft 215 kts 354°
2026-05-06 01:20 50.98381 -114.01788 6964 ft 215 kts 356°
2026-05-06 01:20 50.99852 -114.01923 6945 ft 205 kts 358°
2026-05-06 01:21 51.01244 -114.02017 6959 ft 205 kts 359°
2026-05-06 01:21 51.02768 -114.02099 6955 ft 229 kts 359°
2026-05-06 01:21 51.04424 -114.02168 6949 ft 252 kts 359°
2026-05-06 01:21 51.06222 -114.02228 6946 ft 266 kts 359°
2026-05-06 01:22 51.08075 -114.02293 6946 ft 268 kts 359°
2026-05-06 01:22 51.09943 -114.02391 6946 ft 268 kts 354°
2026-05-06 01:22 51.11702 -114.03362 6832 ft 269 kts 327°
2026-05-06 01:22 51.12972 -114.05538 6637 ft 273 kts 298°
2026-05-06 01:23 51.13455 -114.08453 6488 ft 277 kts 271°
2026-05-06 01:23 51.13331 -114.11515 6435 ft 279 kts 264°
2026-05-06 01:23 51.13115 -114.14593 6442 ft 279 kts 261°
2026-05-06 01:23 51.12477 -114.17474 6449 ft 278 kts 235°
2026-05-06 01:24 51.11087 -114.19565 6456 ft 276 kts 207°
2026-05-06 01:24 51.09266 -114.20404 6454 ft 274 kts 183°
2026-05-06 01:24 51.07360 -114.20504 6455 ft 274 kts 179°
2026-05-06 01:24 51.05451 -114.20514 6454 ft 274 kts 179°
2026-05-06 01:25 51.03543 -114.20511 6455 ft 275 kts 178°
2026-05-06 01:25 51.01633 -114.20508 6465 ft 274 kts 178°
2026-05-06 01:25 50.99718 -114.20500 6467 ft 275 kts 178°
2026-05-06 01:25 50.97806 -114.20489 6473 ft 275 kts 178°
2026-05-06 01:26 50.95893 -114.20476 6478 ft 275 kts 178°
2026-05-06 01:26 50.93985 -114.20466 6484 ft 275 kts 178°
2026-05-06 01:26 50.92073 -114.20456 6493 ft 275 kts 178°
2026-05-06 01:26 50.90212 -114.19994 6500 ft 271 kts 155°
2026-05-06 01:27 50.88702 -114.18263 6504 ft 268 kts 127°
2026-05-06 01:27 50.87906 -114.15634 6508 ft 266 kts 99°
2026-05-06 01:27 50.87791 -114.12706 6506 ft 267 kts 89°
2026-05-06 01:27 50.87884 -114.09784 6499 ft 267 kts 77°
2026-05-06 01:28 50.88620 -114.07103 6504 ft 267 kts 57°
2026-05-06 01:28 50.89811 -114.04876 6490 ft 260 kts 41°
2026-05-06 01:28 50.91248 -114.03325 6489 ft 241 kts 27°
2026-05-06 01:28 50.92805 -114.02431 6484 ft 238 kts 13°
2026-05-06 01:29 50.94394 -114.02149 6472 ft 221 kts
2026-05-06 01:29 50.95870 -114.02153 6402 ft 205 kts
2026-05-06 01:29 50.97259 -114.02150 6120 ft 196 kts
2026-05-06 01:29 50.98565 -114.02149 5878 ft 175 kts
2026-05-06 01:30 50.99714 -114.02148 5634 ft 158 kts
2026-05-06 01:30 51.00790 -114.02146 5417 ft 152 kts
2026-05-06 01:30 51.01827 -114.02144 5215 ft 150 kts
2026-05-06 01:30 51.02866 -114.02142 5002 ft 149 kts
2026-05-06 01:31 51.03904 -114.02141 4807 ft 149 kts
2026-05-06 01:31 51.04934 -114.02140 4583 ft 148 kts
2026-05-06 01:31 51.05961 -114.02139 4329 ft 148 kts
2026-05-06 01:31 51.06993 -114.02134 4104 ft 148 kts
2026-05-06 01:32 51.08025 -114.02136 3913 ft 148 kts
2026-05-06 01:32 51.09055 -114.02131 3729 ft 148 kts
2026-05-06 01:32 51.10087 -114.02129 3557 ft 147 kts
2026-05-06 01:32 51.10959 -114.02135 3557 ft 101 kts
2026-05-06 01:33 51.11519 -114.02128 3556 ft 61 kts
2026-05-06 01:33 51.11731 -114.01958 3558 ft 19 kts 36°
2026-05-06 01:33 51.11742 -114.01939 3557 ft 0 kts 53°
2026-05-06 01:33 51.11744 -114.01935 3558 ft 3 kts 54°
2026-05-06 01:34 51.11778 -114.01823 3556 ft 15 kts 44°
2026-05-06 01:34 51.11883 -114.01796 3557 ft 17 kts 359°
2026-05-06 01:34 51.12000 -114.01798 3560 ft 17 kts 359°
2026-05-06 01:34 51.12134 -114.01798 3559 ft 23 kts
2026-05-06 01:35 51.12315 -114.01796 3561 ft 28 kts
2026-05-06 01:35 51.12515 -114.01796 3562 ft 29 kts 360°
2026-05-06 01:35 51.12716 -114.01796 3563 ft 29 kts
2026-05-06 01:35 51.12870 -114.01767 3564 ft 16 kts 45°
2026-05-06 01:36 51.12894 -114.01597 3564 ft 17 kts 89°
2026-05-06 01:36 51.12919 -114.01427 3565 ft 14 kts 82°
2026-05-06 01:36 51.12921 -114.01404 3565 ft 0 kts 82°